Regional Weather Roundup
Issued by NWS Wakefield, VA

Home | Current Version | Previous Version | Graphics & Text | Print | Product List | Glossary On
Versions: 1 2 3 4 5 6 7 8 9 10 11 12 13 14 15 16 17 18 19 20 21 22 23 24 25 26 27
000
ASUS41 KAKQ 192310
RWRAKQ

REGIONAL WEATHER ROUNDUP
NATIONAL WEATHER SERVICE WAKEFIELD VA
700 PM EDT SAT APR 19 2014

Note: "fair" indicates few or no clouds below 12,000 feet with no
significant weather and/or obstructions to visibility. * = Denotes
station may not report precipitation (e.g., rain,snow,etc.),
thunder or fog.

VAZ042-051-052>054-056-200000-
NORTHERN VIRGINIA

CITY           SKY/WX    TMP DP  RH WIND       PRES   REMARKS
WASH NATIONAL  CLOUDY    66  31  27 N10       30.24R
DULLES         CLOUDY    63  27  25 NE10      30.25R
FORT BELVOIR   CLOUDY    66  29  25 VRB3      30.24R
QUANTICO       CLOUDY    62  46  55 S8        30.24R
FREDERICKSBRG* CLOUDY    63  41  45 SE7       30.22S
STAFFORD*      CLOUDY    63  40  43 CALM      30.27R
WARRENTON      CLOUDY    66  43  43 NE7       30.22F
CULPEPER*      CLOUDY    68  30  24 NE3       30.23S
MANASSAS*      CLOUDY    66  32  28 N10       30.23S
LEESBURG*      CLOUDY    64  32  29 NE10      30.27R
WINCHESTER     CLOUDY    63  30  29 NE5       30.25R
$$

VAZ048-049-060>072-079>083-200000-
CENTRAL AND SOUTH CENTRAL VIRGINIA...AND NORTH CENTRAL NORTH CAROLINA

CITY           SKY/WX    TMP DP  RH WIND       PRES   REMARKS
RICHMOND       CLOUDY    62  39  42 NE8       30.22S
CHESTERFIELD*  NOT AVBL
HANOVER        CLOUDY    61  40  45 NE5       30.24R
TAPPAHANNOCK*  CLOUDY    61  37  40 NE3       30.23S
CHARLOTTSVILLE CLOUDY    63  39  41 E5        30.22S
ORANGE*        CLOUDY    63  37  39 N5        30.24R
LOUISA*        CLOUDY    63  43  48 CALM      30.21R
FARMVILLE*     CLOUDY    63  41  45 NE6       30.20S
SOUTH HILL*    CLOUDY    55  46  71 CALM      30.26R
ROANOKE RAPIDS CLOUDY    54  46  76 NE8       30.20S
RALEIGH        CLOUDY    53  43  68 NE9       30.19S
$$

VAZ088>098-200000-
SOUTHEAST VIRGINIA

CITY           SKY/WX    TMP DP  RH WIND       PRES   REMARKS
NORFOLK        CLOUDY    50  40  68 NE8       30.23R
VIRGINIA BEACH CLOUDY    49  39  68 NE10      30.22R
NORFOLK NAVAL  CLOUDY    52  40  63 NE10      30.24S
WEST POINT*    CLOUDY    62  40  44 E7        30.24S
NEWPORT NEWS   CLOUDY    57  44  62 NE6       30.23S
LANGLEY AFB    CLOUDY    53  47  79 NE7       30.24R
FORT EUSTIS    CLOUDY    56  46  68 E5        30.21S
WILLIAMSBURG*  CLOUDY    57  50  77 CALM      30.23S
FRANKLIN*      CLOUDY    54  45  71 NE6       30.21F
WAKEFIELD      CLOUDY    55  44  66 CALM      30.22S
$$

VAZ020-022-025-037-045-200000-
WESTERN AND SOUTHWEST VIRGINIA

CITY           SKY/WX    TMP DP  RH WIND       PRES   REMARKS
STAUNTON*      CLOUDY    60  39  45 E5        30.24S
HOT SPRINGS VA CLOUDY    52  37  58 E3        30.29S
LYNCHBURG      CLOUDY    64  42  44 E3        30.23R
DANVILLE       CLOUDY    61  41  47 NE9       30.20R
MARTINSVILLE   CLOUDY    62  40  45 E7        30.23R
ROANOKE        CLOUDY    60  40  47 SE7       30.23R
BLACKSBURG     CLOUDY    57  43  58 E10       30.23S
DUBLIN*        CLOUDY    58  38  46 E8        30.22R
MARION*        CLOUDY    59  35  40 E8        30.23R
HILLSVILLE*    CLOUDY    57  32  38 E5        30.24R
RICHLANDS*     CLOUDY    66  33  29 E5        30.18S
WISE*          CLOUDY    63  30  29 N9        30.20S
ABINGDON*      CLOUDY    66  32  28 SE13      30.17R
$$

MDZ021>025-VAZ099-100-200000-
SOUTHERN MARYLAND AND THE DELMARVA PENINSULA

CITY           SKY/WX    TMP DP  RH WIND       PRES   REMARKS
PATUXENT RIVER CLOUDY    61  37  41 N5        30.23R
BAY BRIDGE APT CLOUDY    63  32  31 NE6       30.24S
LEONARDTOWN    CLOUDY    61  36  39 CALM      30.25S
DOVER          CLOUDY    53  44  70 SE9       30.22R
GEORGETOWN     CLOUDY    55  33  43 E7        30.26R
EASTON         CLOUDY    64  37  36 N8        30.27R
CAMBRIDGE      CLOUDY    63  41  45 CALM      30.23R
SALISBURY      CLOUDY    58  29  33 E6        30.25R
OCEAN CITY     CLOUDY    52  38  58 NE7       30.26R
WALLOPS ISLAND CLOUDY    54  40  59 E10       30.25R
ACCOMACK*      CLOUDY    54  34  47 NE6       30.23R
$$

NCZ012>017-030>032-200000-
EASTERN NORTH CAROLINA

CITY           SKY/WX    TMP DP  RH WIND       PRES   REMARKS
ELIZABETH CITY CLOUDY    50  42  74 N14       30.19S
AHOSKIE*       CLOUDY    50  40  68 N7        30.20S
EDENTON*       DRIZZLE   49  44  83 NE8       30.17F
CURRITUCK*     CLOUDY    50  42  74 N12       30.20S
KILL DEVIL HLS DRIZZLE   48  46  92 N9G18     30.15S
MANTEO         DRIZZLE   49  46  92 NE16G23   30.16R
CAPE HATTERAS  LGT RAIN  52  52 100 NE17G29   30.06F
GOLDSBORO      LGT RAIN  50  49  97 N10       30.15S
WASHINGTON     CLOUDY    50  46  84 N10       30.15S
GREENVILLE     CLOUDY    50  41  71 NE14G21   30.18R
NEW BERN       CLOUDY    51  47  86 N8        30.14R
WILMINGTON     RAIN      54  51  90 N16       30.07R FOG
$$

VAZ048-200000-
ELSEWHERE

CITY           SKY/WX    TMP DP  RH WIND       PRES   REMARKS
HARRISBURG PA  CLOUDY    64  22  20 N8        30.26S
BALTIMORE      CLOUDY    64  24  21 NE10      30.24R
ANNAPOLIS      CLOUDY    63  34  33 NE5       30.24R
ANDREWS AFB    CLOUDY    63  33  32 NE8       30.24R
WILMINGTON DE  CLOUDY    62  29  28 N7        30.26R
PHILADELPHIA   CLOUDY    65  20  17 N7        30.26S
WILDWOOD NJ*   CLOUDY    52  36  54 E7        30.28S
ATLANTIC CITY  CLOUDY    53  36  52 E5        30.26S
HENDERSON NC   CLOUDY    53  44  73 NE3       30.21R
GREENSBORO     CLOUDY    59  41  51 NE12      30.18R
ROCKY MOUNT    CLOUDY    52  42  69 N12       30.20R
FAYETTEVILLE   LGT RAIN  51  48  89 NE12      30.14R
CHARLOTTE      RAIN      51  50  96 NE9       30.18R FOG
$$

VAZ100-200000-
MARINE

STATION/POSITION TIME  TEMP    WIND        PRES    WAVE   SWELL
                       AIR SEA DIR/SP/G            HT/PER HT/PER
                 (UTC) (F)     (DEG/KT/KT) (MB)    (FT/S) (FT/S)
44066 TX TWR #4  2300   46 46  330/  4/  4 1024.5F   4/10   5/10
CAPE MAY NJ      2300   52 55  110/  6/  9 1024.5R
LEWES DE         2300   51 49  110/  8/ 10 1023.8S
15NM E FENWICK I 2300   48 47              1024.5R   5/11
OCEAN-CITY-INLET 2300   51 51   70/  6/  8 1024.1R
WACHAPREAGUE VA  2300   52 54   50/ 11/ 14 1023.4R
THOMAS POINT MD  2300   62 54   30/  9/  9 1024.5R
GOOSES REEF MD   2300   56     330/  2/  4 1024.8R
COVE POINT MD    2300   59     340/  4/  5 1023.6R
SOLOMONS ISLAND  2300      53                N/A
BISHOPS HEAD MD  2300   58 57  120/  4/  5 1023.5S
PINEY POINT MD   2300           80/  1/  2   N/A
POTOMAC MD       2300   57      50/  6/  6 1023.2S
CAMBRIDGE MD     2300   62 57  310/  4/  5 1023.2R
LEWISETTA VA     2300   60 54   30/  2/  3 1023.3F
RAPPAHANNOCK LGT 2300           50/ 12/ 13 1023.8S
STINGRAY PT      2300   54      40/  8/  8 1023.7S
YORK RVR RNG VA  2300   54      70/  7/  8 1022.9S
YORKTOWN VA      2300   55 54   90/  6/  6 1023.4S
JAMESTOWN VA     2300   56     130/  4/  6   N/A
DOMINION TERM VA 2300   53      20/  3/  5 1023.5S
KIPTOPEKE VA     2300      52   50/  5/  8   N/A
CHES BAY BRIDGE  2300   50 51   30/ 12/ 14 1023.3R
CAPE HENRY VA    2300   49      30/ 13/ 15   N/A
CHESAPEAKE LGHT  2200   46      30/ 14/ 15 1023.3R
WILLOUBY STN VA  2300   52      50/ 11/ 12 1022.7R
S CRANEY ISL VA  2300           20/  9/ 11 1023.6R
CAPE HENRY BUOY  2300      47                N/A     4/ 9   2/11
1ST LANDING BUOY 2300      46                N/A     4/11   3/10
64NM E OF VA BCH 2300   51 48   20/ 16/ 17 1021.6R   6/11   5/11
DUCK PIER NC     2300   48 49   20/ 18/ 20 1020.8S
44100 DUCK FRF   2300      48                N/A     6/11   2/11
44056 DUCK FRF   2300      47                N/A     6/ 7   2/11
OREGON INLET NC  2300   49 52   10/ 13/ 18 1020.5F
HATTERAS NC      2300   53 56   30/ 18/ 26 1017.8F
CAPE LOOKOUT NC  2200   56      20/ 26/ 31 1016.7F
FRYING PAN SHLS  2300   62 65   50/ 29/ 35 1013.3R  12/ 8
$$



USA.gov is the U.S. government's official web portal to all federal, state and local government web resources and services.